Вернуться в каталог

STARLINK-30766

АктивенСвязьVLEO
NORAD 58125·PAYLOAD·🇺🇸 United States

Запущен Oct 22, 2023 с Cape Canaveral Space Force Station

Loading…

Ближайшие Пролёты (ближайшие 24 часа)

TLE

СвежийSource: CelesTrak SupGP

Эпоха: Sep 15, 2026, 01:48 UTC

1 58125C 23162H   26258.07548611  .00063318  00000+0  22927-2 0  2582
2 58125  43.0000 139.7721 0001415 268.4620 266.2885 15.27556327    10

Отслеживайте STARLINK-30766 в реальном времени с AllMySat

Download on the App Store